EW7630 Weather Reports


Display with metric or nautical units.
time (UTC)temp
F
wind
direction
speed
MPH
gust
MPH
rain 1hr
in
rain 24hr
in
rain mn
in
humidity
%
barometer
mb
20260505075023 59 0.0 0.0 0.01 2.72 0.01 91 1003.6
20260505074021 59 167 1.0 2.0 0.01 2.72 0.01 91 1004.3
20260505073017 60 0.0 0.0 0.01 2.72 0.01 89 1004.5
20260505072026 60 0.0 0.0 0.01 2.72 0.01 88 1004.7
20260505071023 61 3 1.0 3.0 0.01 2.72 0.01 86 1004.9
20260505070018 62 10 2.0 4.0 0.01 2.72 0.01 84 1005.1
20260505065020 63 354 5.0 10.0 0.00 2.71 0.00 80 1005.2
20260505064035 66 354 7.0 14.0 0.00 2.71 0.00 71 1005.0
20260505063030 70 330 9.0 16.0 0.00 2.71 0.00 64 1003.2
20260505062033 70 206 4.0 7.0 0.00 2.71 0.00 66 1003.0
20260505061054 70 34 3.0 5.0 0.00 2.71 0.00 66 1002.8
20260505060030 70 237 2.0 7.0 0.00 2.71 0.00 66 1002.6
20260505055033 70 230 3.0 5.0 0.00 2.71 0.00 65 1002.4
20260505054029 70 228 4.0 6.0 0.00 2.71 0.00 64 1002.0
20260505053026 70 132 3.0 6.0 0.00 2.71 0.00 65 1002.2
20260505052046 70 162 3.0 6.0 0.00 2.71 0.00 64 1002.2
20260505051027 71 228 4.0 5.0 0.00 2.71 0.00 63 1002.0
20260505041023 71 183 4.0 6.0 0.00 2.71 2.71 63 1001.5
20260505040027 72 182 2.0 5.0 0.00 2.75 2.71 62 1001.6
20260505035025 72 158 2.0 6.0 0.00 2.75 2.71 62 1001.8
20260505034101 72 173 2.0 4.0 0.00 2.75 2.71 62 1002.0
20260505033037 72 161 2.0 5.0 0.00 2.75 2.71 61 1002.0
20260505032020 73 171 3.0 7.0 0.00 2.75 2.71 60 1002.0
20260505031034 72 197 2.0 4.0 0.00 2.75 2.71 61 1001.9
20260505030029 72 136 3.0 5.0 0.00 2.75 2.71 61 1001.9
20260505025025 72 236 1.0 4.0 0.00 2.75 2.71 62 1001.7
20260505024027 73 167 2.0 5.0 0.00 2.75 2.71 61 1001.4
20260505023028 73 168 2.0 4.0 0.00 2.75 2.71 61 1001.1
20260505022027 73 179 3.0 5.0 0.00 2.75 2.71 61 1000.8
20260505021023 73 162 3.0 7.0 0.00 2.75 2.71 61 1000.7
20260505020039 73 155 3.0 5.0 0.00 2.75 2.71 62 1000.7
20260505015039 74 206 3.0 5.0 0.00 2.75 2.71 61 1000.6
20260505014112 74 178 3.0 6.0 0.00 2.75 2.71 60 1000.4
20260505013026 74 164 3.0 5.0 0.00 2.75 2.71 60 1000.3
20260505012029 74 136 3.0 5.0 0.00 2.75 2.71 62 1000.3
20260505011026 73 157 2.0 4.0 0.00 2.75 2.71 64 1000.3
20260505010024 73 163 1.0 3.0 0.00 2.75 2.71 66 1000.1
20260505005020 73 178 1.0 3.0 0.00 2.75 2.71 67 1000.0
20260505004035 73 159 1.0 4.0 0.00 2.75 2.71 70 999.9
20260505003032 73 163 1.0 3.0 0.00 2.75 2.71 69 1000.0
20260505002034 73 174 1.0 3.0 0.00 2.75 2.71 69 999.9
20260505001017 74 142 1.0 3.0 0.00 2.75 2.71 68 999.9
20260505000031 74 161 1.0 2.0 0.00 2.75 2.71 68 999.9
20260504235054 74 180 1.0 2.0 0.00 2.75 2.71 68 1000.0
20260504234028 74 182 2.0 4.0 0.00 2.75 2.71 66 1000.3
20260504233023 74 0.0 0.0 0.00 2.75 2.71 67 1000.4
20260504232019 73 357 1.0 4.0 0.00 2.75 2.71 68 999.8
20260504231033 73 140 4.0 6.0 0.00 2.75 2.71 67 999.9
20260504230018 74 162 3.0 5.0 0.00 2.75 2.71 65 1000.1
20260504225112 75 193 2.0 4.0 0.00 2.75 2.71 61 1000.7
20260504224028 76 161 3.0 4.0 0.00 2.75 2.71 60 1001.0
20260504223030 76 178 4.0 6.0 0.00 2.75 2.71 60 1001.2
20260504222032 76 170 3.0 5.0 0.00 2.75 2.71 60 1001.2
20260504221035 76 181 3.0 4.0 0.00 2.75 2.71 61 1001.3
20260504220031 76 186 4.0 7.0 0.00 2.75 2.71 60 1001.3
20260504215034 76 188 3.0 7.0 0.00 2.75 2.71 59 1001.2
20260504214030 76 170 5.0 10.0 0.00 2.75 2.71 58 1001.1
20260504213026 76 202 4.0 11.0 0.00 2.75 2.71 57 1001.4
20260504212022 77 175 6.0 10.0 0.00 2.75 2.71 57 1001.4
20260504211018 77 164 5.0 9.0 0.00 2.75 2.71 57 1001.5
20260504210026 77 176 6.0 8.0 0.00 2.75 2.71 56 1001.6
20260504205022 76 166 7.0 9.0 0.00 2.75 2.71 58 1001.7
20260504204018 75 173 6.0 12.0 0.00 2.75 2.71 61 1002.0
20260504203021 0 158 5.0 5.0 0.00 2.75 2.71 1002.0
20260504202055 74 174 5.0 7.0 0.00 2.75 2.71 64 1002.1
20260504201050 74 169 5.0 8.0 0.00 2.75 2.71 65 1002.3
20260504200027 73 165 4.0 7.0 0.00 2.75 2.71 65 1002.4
20260504195023 73 163 6.0 11.0 0.00 2.75 2.71 64 1002.4
20260504194019 72 268 3.0 6.0 0.00 2.75 2.71 69 1002.3
20260504193058 69 151 3.0 4.0 0.00 2.75 2.71 72 1001.6
20260504192031 68 167 3.0 5.0 0.00 2.75 2.71 74 1001.7
20260504191026 67 193 5.0 8.0 0.00 2.75 2.71 73 1002.3
20260504190023 68 177 2.0 6.0 0.00 2.75 2.71 73 1003.2
20260504185023 68 166 3.0 5.0 0.00 2.75 2.71 72 1003.5
20260504184040 68 174 2.0 6.0 0.00 2.75 2.71 75 1003.5
20260504183028 67 176 4.0 6.0 2.69 2.75 2.71 75 1003.3
20260504182024 66 163 4.0 8.0 2.69 2.75 2.71 77 1003.6
20260504181019 65 156 3.0 5.0 2.69 2.75 2.71 79 1003.7
20260504180043 64 170 2.0 4.0 2.70 2.75 2.71 82 1003.7
20260504175024 63 177 2.0 5.0 2.71 2.75 2.71 81 1003.4
20260504174025 63 230 2.0 4.0 2.71 2.75 2.71 82 1004.0
20260504173044 64 184 2.0 5.0 0.02 0.06 0.02 80 1003.4
20260504172018 64 173 3.0 5.0 0.02 0.06 0.02 80 1003.7
20260504171021 64 168 2.0 3.0 0.02 0.06 0.02 81 1004.0
20260504151033 67 233 2.0 5.0 0.00 0.04 0.00 68 1005.6
20260504141022 69 185 3.0 5.0 0.00 0.04 0.00 67 1005.6
20260504081018 59 0.0 0.0 0.00 0.04 0.00 85 1006.6